www.pogodaiklimat.ru

Погода и климат >> Архив погоды >> Россия >> Ямало-Ненецкий АО >> Питляр


ПОГОДА в Питляре

  • Прогноз погоды в Питляре
  • Монитор погоды в Питляре

АРХИВ ПОГОДЫ в Питляре

Время (UTC), дата Ветер
(напр.,м/с)
 
Видим.   Явления Облачность Т
(С)
Тd
(С)
f
(%)
Тe
(С)
Тes
(С)
Комфортность P
(гПа)
Po
(гПа)
Тmin
(С)
Tmax
(С)
R
(мм)
R24
(мм)
S
(см)
18 9.06 С 3 50 км 10/3 300 м
[Frnb As op]
+8.0 +6.4 90 +5 +5 1004.5 1002.5
21 9.06 С 4 50 км 10/6 600 м
[Cu med, cong As op]
+5.8 +3.9 88 +2 +2 1007.5 1005.4
00 10.06 С 3 50 км 10/8 300 м
[Cb cap Ci sp]
+4.3 +2.2 86 +1 +1 1010.3 1008.3
03 10.06 С 2 50 км 9/9 600 м
[Cu med, cong]
+3.6 -1.4 70 +1 +2 1013.2 1011.1 +2.6
06 10.06 С 2 н/о н/о +5.6 -1.7 59 +4 +4 1014.2 1012.2
09 10.06 З 2 50 км 10/6 600 м
[Cu med, cong Cc]
+8.7 -0.9 51 +7 +11 1014.0 1012.0
12 10.06 ЮВ 3 н/о н/о +8.9 -1.4 48 +7 +7 1013.6 1011.6
15 10.06 В 3 50 км 10/0
[As op]
+8.3 -0.9 52 +6 +6 1011.7 1009.7 +9.5
18 10.06 В 4 50 км 10/0
[As op]
+7.1 -0.8 57 +4 +4 1010.5 1008.5
21 10.06 В 3 20 км слаб. дождь 10/0
[As op]
+5.5 +0.6 71 +2 +2 1008.8 1006.8
00 11.06 В 4 4000 м слаб. морось {дождь} 10/10 300 м
[St]
+3.2 +2.9 98 -2 -2 1007.1 1005.0
03 11.06 В 2 4000 м слаб. морось 10/10 300 м
[St]
+4.3 +4.0 98 +1 +1 1006.1 1004.0 +3.1 0.7
06 11.06 З 1 н/о н/о +6.3 +4.9 91 +5 +5 1005.9 1003.9
09 11.06 СЗ 2 50 км 9/9 600 м
[Cu med, cong]
+7.9 +4.3 78 +6 +7 1005.9 1003.9
12 11.06 СЗ 2 н/о н/о +8.5 +4.1 74 +7 +7 1005.4 1003.4
15 11.06 СЗ 2 50 км 10/8 600 м
[Cu med, cong Ac und]
+8.2 +4.6 78 +6 +6 1004.4 1002.4 +9.7 0.0
18 11.06 С 1 50 км 10/0
[Ac As]
+7.2 +4.3 82 +6 +6 1004.0 1002.0
21 11.06 В 1 50 км {дождь} 10/10 300 м
[Cb cap]
+6.1 +5.4 95 +5 +5 1002.8 1000.8
00 12.06 С 2 50 км {дождь} 10/6 600 м
[Cu med, cong Ac und]
+5.8 +4.0 88 +3 +3 1002.2 1000.2
03 12.06 С 4 50 км 10/10 300 м
[Cb cap]
+6.1 +3.6 84 +2 +2 1001.7 999.7 +5.7 0.6
06 12.06 С 3 н/о н/о +7.0 +2.9 75 +4 +4 1001.2 999.2 +5.6
09 12.06 СЗ 4 50 км 8/5 600 м
[Cu med, cong Ac trans Ci sp]
+9.2 +0.8 56 +7 +9 1000.9 998.9
12 12.06 СЗ 6 н/о н/о +8.5 +0.3 56 +5 +5 1001.2 999.2
15 12.06 СЗ 4
{11}
50 км 8/0
[Ac trans Ci sp]
+6.5 -2.2 54 +3 +4 1001.8 999.7 +10.3 0.0
18 12.06 З 6
{11}
50 км 6/3 600 м
[Cu hum Ac lent Ci sp]
+5.9 -0.4 64 +1 +1 1000.8 998.8
21 12.06 З 7-10
{10}
50 км 10/3 600 м
[Cu med, cong Ac lent Ci sp]
+4.5 +0.8 77 -1 -1 999.4 997.4
00 13.06 СЗ 7-11
{13}
50 км 10/6 600 м
[Cu med, cong Ac As]
+3.4 -0.5 76 -2 -2 999.0 997.0
03 13.06 З 6
{11}
50 км 10/4 300 м
[Frnb As trans]
+2.4 -0.4 82 -3 -3 998.5 996.4 +2.4
06 13.06 З 6 н/о н/о +3.1 -0.2 79 -3 -3 998.5 996.4 +1.1
09 13.06 СЗ 8-12
{12}
50 км в посл. час ливневой снег 10/8 300 м
[Cb cap Ci fib]
+5.1 -1.5 62 -0 0 998.7 996.7
12 13.06 СЗ 11-16
{16}
н/о н/о +4.4 -2.6 60 -2 -2 999.9 997.9
15 13.06 СЗ 10-15
{16}
50 км 10/6 600 м
[Cu med, cong Ac lent Ci sp]
+3.5 -2.8 63 -3 -3 999.9 997.8 +6.0 0.6
18 13.06 СЗ 9-13
{16}
50 км 10/8 300 м
[Cb cap Ac lent]
+2.4 -3.1 67 -4 -4 999.5 997.4
21 13.06 СЗ 8-12
{14}
50 км 10/0
[As op]
+1.4 -3.6 69 -5 -5 998.5 996.5
00 14.06 З 9-12
{15}
4000 м слаб. снег 10/0
[As op]
-0.0 -0.2 99 -8 -8 997.9 995.9
03 14.06 З 9-12
{14}
4000 м слаб. снег 10/10 300 м
[Frnb Ns]
+0.4 +0.4 100 -8 -8 998.2 996.1 -0.1 2
06 14.06 З 11-14
{15}
н/о н/о +0.7 +0.7 100 -8 -8 999.2 997.2
09 14.06 СЗ 6
{14}
4000 м слаб. снег 10/9 300 м
[Frnb As op]
+1.9 +1.9 100 -4 -4 1001.4 999.4
12 14.06 З 3 н/о н/о +5.6 +4.2 91 +2 +2 1002.2 1000.2
15 14.06 З 7-10
{12}
50 км 10/5 600 м
[Cu med, cong Ac lent Ci sp]
+6.0 +0.3 67 +1 +1 1002.9 1000.9 +6.8 7
18 14.06 З 7
{13}
50 км 3/3 600 м
[Sc]
+5.3 +1.1 74 0 0 1002.4 1000.4
21 14.06 З 7
{10}
50 км 4/0
[Ac lent]
+3.8 +0.8 81 -2 -2 1002.1 1000.1
00 15.06 ЮЗ 6
{10}
50 км 10/0
[Ci sp]
+4.5 +1.1 79 -1 -0 1001.7 999.7
03 15.06 ЮЗ 5 50 км 10/8 300 м
[Cb cap Ci sp]
+4.6 +1.3 79 -0 0 1001.4 999.4 +3.6
06 15.06 ЮЗ 4
{11}
н/о н/о +6.4 +2.6 77 +3 +3 1000.8 998.8
09 15.06 Ю 4
{10}
50 км 10/3 300 м
[Cb cap Ac trans Ci ing]
+7.1 +3.0 75 +4 +6 1000.8 998.8
12 15.06 ЮЗ 4 н/о н/о +9.1 +2.0 61 +6 +6 1000.5 998.5
15 15.06 ЮЗ 3 50 км 10/6 300 м
[Cb cap Ci sp]
+7.8 +2.6 70 +5 +6 1000.4 998.4 +9.5 0.9
18 15.06 З 3 50 км 8/5 600 м
[Cu med, cong Ci sp]
+6.4 +2.3 75 +3 +3 1000.3 998.3
21 15.06 З 5 50 км 10/0
[Ac trans Ci fib]
+5.1 +1.5 78 +1 +1 999.9 997.8
00 16.06 З 5 50 км 6/0
[Ci sp]
+5.2 +1.7 78 +1 +1 999.7 997.7
03 16.06 З 5 50 км 10/1 600 м
[Cu med, cong Ac und]
+6.3 -0.4 62 +2 +3 1000.0 998.0 +4.7
06 16.06 ЮЗ 4 н/о н/о +7.7 -1.5 52 +5 +5 1000.2 998.2
09 16.06 ЮЗ 4 50 км 10/4 600 м
[Cu med, cong Ci fib]
+9.4 -1.6 46 +7 +11 999.7 997.7
12 16.06 ЮЗ 3 н/о н/о +11.4 -1.1 42 +10 +10 999.5 997.5
15 16.06 Ю 2 50 км 10/1 600 м
[Cu med, cong Ac lent Ci fib]
+10.0 -1.5 45 +9 +10 999.1 997.1 +11.7

 

Местоположение метеостанции Питляр (Ямало-Ненецкий АО, Россия): широта 65.83 долгота 65.93 высота над уровнем моря 17 м.

В архиве по умолчанию представлена погода в Питляре за последнюю неделю. Архивные данные за месяц целиком и за предыдущие месяцы, начиная с января 2011 года, Вы можете получить, выбрав интересующий диапазон дат из раскрывающегося списка и нажав кнопку "Ввод!".


*Определитесь, кто Вы:
робот инопланетянин человек

Внимание! Время в таблицах - всемирное. Для получения местного времени необходимо прибавить поправку, которая равна 5 ч.

Смотрите также архив погоды в соседних городах и на ближайших метеорологических станциях:

Погода в Мужах (Ямало-Ненецкий АО, Россия) (75 км)
Погода в Салехарде (Ямало-Ненецкий АО, Россия) (85 км)
Погода в Харпе (Ямало-Ненецкий АО, Россия) (108 км)
Погода в Полуе (Ямало-Ненецкий АО, Россия) (127 км)
Погода в Белоярске (Ямало-Ненецкий АО, Россия) (152 км)
Погода в Елецкой (Коми, Россия) (159 км)
Погода в Воркуте (Коми, Россия) (203 км)
Погода в Березово (Ханты-Мансийский АО, Россия) (217 км)
Погода в Петруни (Коми, Россия) (242 км)
Погода в Казым-Мысе (Ханты-Мансийский АО, Россия) (243 км)

Пояснения к столбцам:

Ветер - указаны скорость ветра в м/с - средняя за 10 мин, порывы в срок и между сроками (в фигурных скобках) и направление, откуда дует ветер: С - северный, СВ - северо-восточный, В - восточный, ЮВ - юго-восточный, Ю - южный, ЮЗ - юго-западный, З - западный, СЗ - северо-западный.
Видимость - горизонтальная дальность видимости в метрах или километрах. При видимости от 1 до 10 км при отсутствии осадков обычно наблюдается дымка, при ухудшении видимости до 1 км и менее - туман. В сухую погоду видимость может ухудшаться дымом, пылью или мглою.
Явления - указаны атмосферные явления, наблюдавшиеся в срок или в последний час перед сроком; фигурными скобками обозначены явления, наблюдавшиеся между сроками (за 1-3 часа до срока); квадратными скобками обозначены град или гололедные отложения с указанием их диаметра в мм.
Облачность - указаны через наклонную черту общая и нижняя облачность в баллах и высота нижней границы облаков в метрах; квадратными скобками обозначены формы облаков: Ci - перистые, Cs - перисто-слоистые, Cc - перисто-кучевые, Ac - высококучевые, As - высокослоистые, Sc - слоисто-кучевые, Ns - слоисто-дождевые, Cu - кучевые, Cb - кучево-дождевые. Подробнее классификацию облаков см. в Атласе облаков (PDF).
T - Температура воздуха - температура, измеренная на высоте 2 м над землей.
Td - Температура точки росы - температура, при понижении до которой содержащийся в воздухе водяной пар достигнет насыщения.
f - Относительная влажность воздуха - влажноcть воздуха, измеренная на высоте 2 м над землей.
Te - Эффективная температура - температура, которую ощущает одетый по сезону человек в тени. Характеристика душности погоды. При расчете учитывается влияние влажности воздуха и скорости ветра на теплоощущения человека.
Tes - Эффективная температура на солнце - температура, которую ощущает человек, с поправкой на солнечный нагрев. Характеристика знойности погоды. Зависит от высоты солнца над горизонтом, облачности и скорости ветра. Ночью, в пасмурную погоду, а также при ветре 12 м/с и более поправка равна нулю.
P - Атмосферное давление - приведенное к уровню моря атмосферное давление.
Po - Атмосферное давление - измеренное на уровне метеостанции атмосферное давление.
Tmin - Минимальная температура - минимум температуры воздуха на высоте 2 м над землей.
Tmax - Максимальная температура - максимум температуры воздуха на высоте 2 м над землей.
R - Количество осадков - Количество выпавших осадков за период времени, мм. При наведении курсора мыши на число - период времени, за который выпало указанное количество осадков.
R24 - Количество осадков - Количество выпавших осадков за 24 часа, мм.
S - Снежный покров - Высота снежного покрова, см. При наведении курсора мыши на число - состояние снежного покрова и степень покрытия местности в баллах.